EW4462 Weather Reports


Display with metric or nautical units.
time (UTC)temp
F
wind
direction
speed
MPH
gust
MPH
rain 1hr
in
rain 24hr
in
rain mn
in
humidity
%
barometer
mb
20260906022238 77 160 0.0 0.0 0.00 0.00 0.00 51 1012.7
20260906021205 77 160 0.0 0.0 0.00 0.00 0.00 48 1012.6
20260906020155 78 160 0.0 0.0 0.00 0.00 0.00 58 1012.7
20260906015146 79 160 0.0 0.0 0.00 0.00 0.00 59 1012.7
20260906014148 80 160 0.0 0.0 0.00 0.00 0.00 56 1012.8
20260906013128 81 160 0.0 0.0 0.00 0.00 0.00 50 1012.8
20260906012124 82 160 0.0 0.0 0.00 0.00 0.00 49 1012.9
20260906011052 83 161 0.0 0.0 0.00 0.00 0.00 44 1012.8
20260906010033 84 162 0.0 0.0 0.00 0.00 0.00 39 1012.8
20260906005009 85 163 0.0 0.0 0.00 0.00 0.00 39 1012.7
20260906004011 86 173 0.0 0.0 0.00 0.00 0.00 40 1012.6
20260906002951 86 147 0.0 0.0 0.00 0.00 0.00 38 1012.7
20260906001936 86 153 0.0 0.0 0.00 0.00 0.00 41 1012.6
20260906000911 87 157 0.0 0.0 0.00 0.00 0.00 42 1012.7
20260905235855 87 101 0.0 0.0 0.00 0.00 0.00 45 1012.6
20260905234904 87 163 0.0 0.0 0.00 0.00 0.00 46 1012.6
20260905233905 87 117 0.0 0.0 0.00 0.00 0.00 43 1012.7
20260905232910 87 82 0.0 0.0 0.00 0.00 0.00 41 1012.7
20260905231910 87 116 0.0 0.0 0.00 0.00 0.00 42 1012.5
20260905230915 88 159 0.0 0.0 0.00 0.00 0.00 39 1012.5
20260905225935 88 145 0.0 0.0 0.00 0.00 0.00 40 1012.6
20260905224924 88 134 0.0 0.0 0.00 0.00 0.00 37 1012.7
20260905223855 88 219 0.0 0.0 0.00 0.00 0.00 36 1012.7
20260905222920 88 109 0.0 0.0 0.00 0.00 0.00 36 1012.8
20260905221914 88 88 0.0 0.0 0.00 0.00 0.00 38 1012.9
20260905220911 87 96 0.0 0.0 0.00 0.00 0.00 40 1013.0
20260905215910 87 111 0.0 0.0 0.00 0.00 0.00 43 1013.1
20260905214857 87 83 0.0 0.0 0.00 0.00 0.00 44 1013.1
20260905213901 87 162 0.0 0.0 0.00 0.00 0.00 46 1013.3
20260905212847 87 123 0.0 0.0 0.00 0.00 0.00 49 1013.4
20260905211845 87 101 0.0 6.0 0.00 0.00 0.00 52 1013.5
20260905210834 87 109 0.0 0.0 0.00 0.00 0.00 52 1013.5
20260905205817 86 126 0.0 0.0 0.00 0.00 0.00 54 1013.4
20260905204811 85 109 0.0 0.0 0.00 0.00 0.00 56 1013.5
20260905203746 85 91 0.0 0.0 0.00 0.00 0.00 55 1013.7
20260905202808 84 168 0.0 0.0 0.00 0.00 0.00 56 1013.6
20260905201755 84 164 0.0 0.0 0.00 0.00 0.00 57 1013.7
20260905200808 83 123 0.0 0.0 0.00 0.00 0.00 56 1013.7
20260905195753 83 119 0.0 0.0 0.00 0.00 0.00 57 1013.9
20260905193634 82 102 0.0 0.0 0.00 0.00 0.00 60 1014.0
20260905192601 81 108 0.0 0.0 0.00 0.00 0.00 62 1014.4
20260905191559 80 107 0.0 0.0 0.00 0.00 0.00 63 1014.6
20260905190535 80 105 0.0 0.0 0.00 0.00 0.00 61 1014.6
20260905185518 80 115 0.0 0.0 0.00 0.00 0.00 60 1014.6
20260905184459 80 119 0.0 0.0 0.00 0.00 0.00 61 1014.6
20260905183523 79 94 0.0 0.0 0.00 0.00 0.00 61 1014.7
20260905181424 79 109 0.0 0.0 0.00 0.00 0.00 59 1014.9
20260905180422 79 93 0.0 0.0 0.00 0.00 0.00 59 1014.9
20260905175408 79 104 0.0 0.0 0.00 0.00 0.00 59 1014.8
20260905174431 79 109 0.0 0.0 0.00 0.00 0.00 59 1014.8
20260905173414 78 110 0.0 0.0 0.00 0.00 0.00 63 1014.8
20260905172341 77 110 0.0 0.0 0.00 0.00 0.00 63 1014.6
20260905171336 77 110 0.0 0.0 0.00 0.00 0.00 62 1014.6
20260905170400 76 110 0.0 0.0 0.00 0.00 0.00 64 1014.6
20260905164307 75 110 0.0 0.0 0.00 0.00 0.00 62 1014.5
20260905163319 74 110 0.0 0.0 0.00 0.00 0.00 69 1014.5
20260905162321 73 110 0.0 0.0 0.00 0.00 0.00 70 1014.5
20260905161314 73 110 0.0 0.0 0.00 0.00 0.00 72 1014.5
20260905160308 72 110 0.0 0.0 0.00 0.00 0.00 72 1014.5
20260905155324 73 110 0.0 0.0 0.00 0.00 0.00 73 1014.6
20260905154259 72 110 0.0 0.0 0.00 0.00 0.00 74 1014.6
20260905153242 71 110 0.0 0.0 0.00 0.00 0.00 77 1014.3
20260905152306 70 110 0.0 0.0 0.00 0.00 0.00 78 1014.3
20260905150121 67 110 0.0 0.0 0.00 0.00 0.00 86 1014.2
20260905145057 65 110 0.0 0.0 0.00 0.00 0.00 91 1014.2
20260905144024 64 110 0.0 0.0 0.00 0.00 0.00 92 1014.0
20260905143047 62 109 0.0 0.0 0.00 0.00 0.00 91 1013.9
20260905142030 62 110 0.0 0.0 0.00 0.00 0.00 91 1013.7
20260905141006 61 110 0.0 0.0 0.00 0.00 0.00 91 1013.6
20260905135953 61 110 0.0 0.0 0.00 0.00 0.00 90 1013.7
20260905134932 61 110 0.0 0.0 0.00 0.00 0.00 90 1013.4
20260905133928 61 109 0.0 0.0 0.00 0.00 0.00 90 1013.2
20260905132909 61 109 0.0 0.0 0.00 0.00 0.00 90 1013.1
20260905131858 61 109 0.0 0.0 0.00 0.00 0.00 90 1012.9
20260905130918 61 109 0.0 0.0 0.00 0.00 0.00 90 1012.8
20260905125855 61 109 0.0 0.0 0.00 0.00 0.00 91 1012.9
20260905124906 61 109 0.0 0.0 0.00 0.00 0.00 91 1013.0
20260905123903 61 110 0.0 0.0 0.00 0.00 0.00 91 1013.0
20260905121828 61 110 0.0 0.0 0.00 0.00 0.00 91 1013.1
20260905120820 61 109 0.0 0.0 0.00 0.00 0.00 91 1013.1
20260905114706 61 109 0.0 0.0 0.00 0.00 0.00 91 1013.0
20260905113658 61 109 0.0 0.0 0.00 0.00 0.00 90 1013.1
20260905112702 62 109 0.0 0.0 0.00 0.00 0.00 91 1013.2
20260905111726 62 109 0.0 0.0 0.00 0.00 0.00 90 1013.1
20260905110747 62 109 0.0 0.0 0.00 0.00 0.00 90 1013.3
20260905105753 62 109 0.0 0.0 0.00 0.00 0.00 90 1013.3
20260905104738 62 109 0.0 0.0 0.00 0.00 0.00 90 1013.3
20260905103724 62 109 0.0 0.0 0.00 0.00 0.00 90 1013.4
20260905102742 62 109 0.0 0.0 0.00 0.00 0.00 90 1013.4
20260905101723 62 109 0.0 0.0 0.00 0.00 0.00 90 1013.5
20260905100718 62 109 0.0 0.0 0.00 0.00 0.00 90 1013.5
20260905093512 62 109 0.0 0.0 0.00 0.00 0.00 90 1013.6
20260905092504 62 109 0.0 0.0 0.00 0.00 0.00 90 1013.6
20260905091437 62 109 0.0 0.0 0.00 0.00 0.00 89 1013.6
20260905090456 63 109 0.0 0.0 0.00 0.00 0.00 89 1013.7
20260905085435 63 109 0.0 0.0 0.00 0.00 0.00 89 1013.7
20260905084420 63 109 0.0 0.0 0.00 0.00 0.00 89 1013.9
20260905083432 63 110 0.0 0.0 0.00 0.00 0.00 89 1014.0
20260905082422 63 109 0.0 0.0 0.00 0.00 0.00 89 1014.0
20260905081413 63 110 0.0 0.0 0.00 0.00 0.00 89 1014.1
20260905080348 64 109 0.0 0.0 0.00 0.00 0.00 89 1014.3
20260905075327 64 110 0.0 0.0 0.00 0.00 0.00 89 1014.4
20260905074256 64 109 0.0 0.0 0.00 0.00 0.00 89 1014.4
20260905073302 64 109 0.0 0.0 0.00 0.00 0.00 88 1014.4
20260905072243 64 109 0.0 0.0 0.00 0.00 0.00 88 1014.4
20260905071255 64 109 0.0 0.0 0.00 0.00 0.00 88 1014.5
20260905070312 64 109 0.0 0.0 0.00 0.00 0.00 87 1014.5
20260905065323 64 109 0.0 0.0 0.00 0.00 0.00 87 1014.6
20260905064320 64 109 0.0 0.0 0.00 0.00 0.00 88 1014.5
20260905063251 64 109 0.0 0.0 0.00 0.00 0.00 88 1014.6
20260905061048 65 109 0.0 0.0 0.00 0.00 0.00 87 1014.4
20260905060105 65 109 0.0 0.0 0.00 0.00 0.00 86 1014.4
20260905055049 65 109 0.0 0.0 0.00 0.00 0.00 87 1014.2
20260905054015 65 109 0.0 0.0 0.00 0.00 0.00 86 1014.2
20260905051836 65 109 0.0 0.0 0.00 0.00 0.00 86 1014.3
20260905050836 66 109 0.0 0.0 0.00 0.00 0.00 85 1014.4
20260905045844 66 109 0.0 0.0 0.00 0.00 0.00 85 1014.3
20260905044838 66 109 0.0 0.0 0.00 0.00 0.00 84 1014.1
20260905043850 66 109 0.0 0.0 0.00 0.00 0.00 84 1014.0
20260905042900 67 109 0.0 0.0 0.00 0.00 0.00 84 1013.7
20260905041850 67 109 0.0 0.0 0.00 0.00 0.00 83 1013.6
20260905040829 67 109 0.0 0.0 0.00 0.00 0.00 82 1013.7
20260905034634 68 109 0.0 0.0 0.00 0.00 0.00 82 1013.6
20260905033618 69 109 0.0 0.0 0.00 0.00 0.00 81 1013.5
20260905032631 69 110 0.0 0.0 0.00 0.00 0.00 80 1013.3
20260905025330 70 109 0.0 0.0 0.00 0.00 0.00 78 1012.9
20260905023204 71 109 0.0 0.0 0.00 0.00 0.00 77 1013.0